Tracking 27079 objects as of 23-Mar-2023
HD Live streaming from Space Station
objects crossing your sky now

SL-16 DEB

Track SL-16 DEB now!
10-day predictions


NORAD ID: 29094
Int'l Code: 1992-093JQ
Perigee: 711.0 km
Apogee: 895.2 km
Inclination: 71.3 °
Period: 100.8 minutes
Semi major axis: 7174 km
RCS: 0.0117 m2 (small)
Launch date: December 25, 1992
Source: Commonwealth of Independent States (former USSR) (CIS)
Launch site: TYURATAM MISSILE AND SPACE COMPLEX (TTMTR)

Note: This is SATELLITE DEBRIS
Your satellite tracking list
Your tracking list is empty




NASA's NSSDC Master Catalog

Two Line Element Set (TLE):
1 29094U 92093JQ  23078.41194799  .00015220  00000-0  55384-2 0  9998
2 29094  71.2887 222.5498 0128360 133.9234 227.2579 14.28725275 59861
Source of the keplerian elements: AFSPC